This is the latest recevied weather packets stored in our database for station/object K1AWR. If no packets are shown the sender has not sent any weather packets the latest 10 day(s).
| Time | Temp. | Humidity | Pressure | Rain* | Wind** | Luminosity | Snow |
|---|---|---|---|---|---|---|---|
| 1788552564 | 30° C | 44% | 1010.3 hPa | 0 mm | - | 100 W/m² | - |
| 1788552262 | 29.44° C | 45% | 1010.2 hPa | 0 mm | - | 373 W/m² | - |
| 1788551958 | 28.89° C | 47% | 1010.1 hPa | 0 mm | - | 378 W/m² | - |
| 1788551655 | 29.44° C | 44% | 1010.3 hPa | 0 mm | - | 393 W/m² | - |
| 1788551350 | 30.56° C | 46% | 1010.2 hPa | 0 mm | - | 412 W/m² | - |
| 1788551050 | 30° C | 46% | 1010.4 hPa | 0 mm | - | 416 W/m² | - |
| 1788550745 | 30° C | 47% | 1010.3 hPa | 0 mm | - | 457 W/m² | - |
| 1788550440 | 28.89° C | 48% | 1010.3 hPa | 0 mm | - | 454 W/m² | - |
| 1788550135 | 28.89° C | 48% | 1010.5 hPa | 0 mm | - | 427 W/m² | - |
| 1788549831 | 29.44° C | 46% | 1010.2 hPa | 0 mm | - | 484 W/m² | - |
| 1788549544 | 29.44° C | 48% | 1010.3 hPa | 0 mm | - | 537 W/m² | - |
| 1788549224 | 28.89° C | 46% | 1010.4 hPa | 0 mm | - | 544 W/m² | - |
| 1788548920 | 29.44° C | 48% | 1010.6 hPa | 0 mm | - | 537 W/m² | - |
| 1788548615 | 28.89° C | 49% | 1010.3 hPa | 0 mm | - | 521 W/m² | - |
| 1788548311 | 28.89° C | 49% | 1010.6 hPa | 0 mm | - | 530 W/m² | - |
| 1788548007 | 29.44° C | 48% | 1010.3 hPa | 0 mm | - | 548 W/m² | - |
| 1788547706 | 28.89° C | 50% | 1010.6 hPa | 0 mm | - | 553 W/m² | - |
| 1788547401 | 28.89° C | 45% | 1010.7 hPa | 0 mm | - | 560 W/m² | - |
| 1788547097 | 28.33° C | 51% | 1010.7 hPa | 0 mm | - | 567 W/m² | - |
| 1788546792 | 28.89° C | 48% | 1010.6 hPa | 0 mm | - | 579 W/m² | - |
| 1788546487 | 28.89° C | 53% | 1010.6 hPa | 0 mm | - | 616 W/m² | - |
| 1788546182 | 28.33° C | 50% | 1010.7 hPa | 0 mm | - | 592 W/m² | - |
| 1788545878 | 28.33° C | 52% | 1010.5 hPa | 0 mm | - | 590 W/m² | - |
| 1788545577 | 27.78° C | 50% | 1010.7 hPa | 0 mm | - | 602 W/m² | - |
| 1788545273 | 28.33° C | 54% | 1010.8 hPa | 0 mm | - | 606 W/m² | - |
* Rain latest hour (hover to see other rain measurements)
** Current wind speed in m/s (hover to see current wind gust speed)